Regional Weather Roundup
Issued by NWS

Home | Current Version | Previous Version | Text Only | Print | Product List | Glossary Off
Versions: 1 2 3 4 5 6 7 8 9 10 11 12 13 14 15 16 17 18 19 20 21 22 23 24 25 26 27 28 29 30 31 32 33 34 35 36 37 38 39 40 41 42 43 44 45 46 47 48 49 50

000
ASUS44 KMEG 240600
RWRTN
TENNESSEE HOURLY STATE WEATHER ROUNDUP
NATIONAL WEATHER SERVICE MEMPHIS TN
100 AM CDT SUN JUL 24 2016

TNZ002-004-019-021-049-052-054-088>092-240700-
WEST TENNESSEE

CITY           SKY/WX    TMP DP  RH WIND       PRES   REMARKS
MEMPHIS INTL   CLOUDY    78  72  81 SE3       29.95F
NWS MEMPHIS      N/A     78 N/A N/A MISG        N/A
JACKSON        PTCLDY    76  75  97 CALM      29.97S
DYERSBURG      CLOUDY   N/A N/A N/A MISG        N/A
PARIS          CLEAR     73  73 100 CALM      29.97F
$$

TNZ008-025-027-028-033-062-065-066-240700-
NORTH MIDDLE TENNESSEE

CITY           SKY/WX    TMP DP  RH WIND       PRES   REMARKS
NASHVILLE      PTCLDY    76  70  82 S5        30.00F
CLARKSVILLE    CLEAR     76  74  93 CALM      29.97S
CROSSVILLE     CLEAR     69  68  96 CALM      30.09S
$$

TNZ061-075-076-078-094-096-097-240700-
SOUTH MIDDLE TENNESSEE

CITY           SKY/WX    TMP DP  RH WIND       PRES   REMARKS
SHELBYVILLE    CLEAR     73  73 100 CALM      30.02F
$$

TNZ017-018-042-046-047-240700-
NORTHEAST TENNESSEE

CITY           SKY/WX    TMP DP  RH WIND       PRES   REMARKS
TRI CITIES     PTCLDY    73  69  87 CALM      30.09S
$$

TNZ012-013-036-069-073-074-240700-
CENTRAL EAST TENNESSEE

CITY           SKY/WX    TMP DP  RH WIND       PRES   REMARKS
KNOXVILLE      PTCLDY    73  70  90 CALM      30.04F
OAK RIDGE      CLEAR     75  71  87 CALM      30.05F
$$

TNZ083-085-099-240700-
SOUTHEAST TENNESSEE

CITY           SKY/WX    TMP DP  RH WIND       PRES   REMARKS
CHATTANOOGA    CLEAR     77  71  82 CALM      30.03S
$$

SKY/WX REPORTED AS FAIR MEANS FEW OR NO CLOUDS BELOW
12 THOUSAND FEET.





USA.gov is the U.S. government's official web portal to all federal, state and local government web resources and services.